Regional Weather Roundup
Issued by NWS Upton, NY

Current Version | Previous Version | Text Only | Print | Product List | Glossary On
Versions: 1 2 3 4 5 6 7 8 9 10 11 12 13 14 15 16 17 18 19 20 21 22 23 24 25 26 27 28 29 30 31 32 33 34 35 36 37 38 39 40 41 42 43 44 45 46 47 48 49 50
570 ASUS41 KOKX 282004 RWROKX REGIONAL WEATHER ROUNDUP NATIONAL WEATHER SERVICE NEW YORK NY 400 PM EDT THU JUL 28 2016 NOTE: "FAIR" INDICATES FEW OR NO CLOUDS BELOW 12,000 FEET WITH NO SIGNIFICANT WEATHER AND/OR OBSTRUCTIONS TO VISIBILITY. NYZ071-072-176-178-NJZ106-104-282100- NEW YORK CITY METRO AREA CITY SKY/WX TMP DP RH WIND PRES REMARKS Central Park PTSUNNY 87 67 51 VRB3 29.88R HX 90 LaGuardia APRT PTSUNNY 88 70 55 S21 29.85R HX 93 Kennedy INTL CLOUDY 83 73 72 S16 29.87F Newark/Liberty CLOUDY 88 69 53 S15 29.84S HX 92 Bronx Bot Gard N/A 86 66 51 SE17 29.85F Wall St Helipt CLOUDY 86 72 62 S9G18 29.87S HX 92 Teterboro PTSUNNY 91 64 40 S12 29.82S HX 92 $$ NYZ177-179-078>081-282100- LONG ISLAND NEW YORK CITY SKY/WX TMP DP RH WIND PRES REMARKS Farmingdale MOSUNNY 84 73 69 S13 29.87S HX 90 MacArthur/ISP PTSUNNY 85 74 69 S14 29.87S HX 92 Shirley MOSUNNY 85 74 69 S14 29.88S HX 92 Riverhead NOT AVBL Westhampton MOSUNNY 83 74 74 SE12 29.90R Southhampton N/A 81 75 83 S8 29.84S Bridgehampton N/A 84 75 74 N2 29.87S HX 92 East Hampton FAIR 81 74 79 S9G16 29.88R Montauk N/A 80 75 84 VRB6 29.89F $$ NYZ052-065-067-282100- HUDSON VALLEY CITY SKY/WX TMP DP RH WIND PRES REMARKS White Plains MOSUNNY 89 63 41 SE12 29.85F HX 90 Newburgh MOSUNNY 91 59 33 CALM 29.86F HX 90 Montgomery MOSUNNY 92 62 36 CALM 29.84F HX 92 Poughkeepsie MOSUNNY 94 60 32 CALM 29.82F HX 94 Albany CLOUDY 90 64 42 W9 29.84S HX 91 $$ NJZ001-105-106-008-010-013-015-019>022-104-282100- NEW JERSEY CITY SKY/WX TMP DP RH WIND PRES REMARKS Newark/Liberty CLOUDY 88 69 53 S15 29.84S HX 92 Teterboro PTSUNNY 91 64 40 S12 29.82S HX 92 Caldwell MOSUNNY 94 58 29 W5 29.83F HX 93 Morristown NOT AVBL Somerville CLOUDY 89 67 47 S6 29.83S HX 92 Linden FAIR 88 69 53 S13 29.87S HX 91 Sussex MOSUNNY 90 64 42 VRB3 29.85F HX 91 Abdover N/A 89 62 40 VRB6 29.86F Trenton TSTM 81 71 71 S6 29.86R Millville LGT RAIN 79 76 90 VRB3 29.86S FOG Atlantic City CLOUDY 81 77 88 SE7 29.86F FOG Wrightstown NOT AVBL Toms River LGT RAIN 81 77 88 SE5 29.88F Belmar LGT RAIN 80 76 87 SE6 29.89S $$ PAZ047>061-062-071-282100- EASTERN PENNSYLVANIA CITY SKY/WX TMP DP RH WIND PRES REMARKS Philadelphia LGT RAIN 76 73 91 S6 29.89F FOG Allentown CLOUDY 86 67 52 SW10 29.87R Scranton PTSUNNY 91 65 41 SW6 29.86F HX 93 $$ CTZ002-004>006-009-010-012-RIZ004-006-007-MAZ004-011-015-282100- SOUTHERN NEW ENGLAND IN CT CITY SKY/WX TMP DP RH WIND PRES REMARKS Bradley INTL CLOUDY 96 61 31 N6 29.83F HX 96 Hartford PTSUNNY 94 63 35 S8 29.81F HX 95 Danbury SUNNY 90 62 39 S7 29.86F HX 90 Wtrbury/Oxford MOSUNNY 90 63 40 VRB6 29.90F HX 90 Bridgeport SUNNY 87 65 47 S9 29.85S Meriden PTSUNNY 94 62 34 S8 29.83F HX 94 New Haven N/A 88 63 43 S12 29.86S Chester FAIR 90 61 37 S10G17 29.87S Groton SUNNY 81 73 76 S13 29.85F Wilimantic MOSUNNY 92 63 38 VRB3 29.85F HX 93 IN RI CITY SKY/WX TMP DP RH WIND PRES REMARKS Providence PTSUNNY 84 71 65 S13 29.86S Block Island MOSUNNY 79 74 84 S13 29.88F Westerly MOSUNNY 83 71 67 S12 29.88F IN MA CITY SKY/WX TMP DP RH WIND PRES REMARKS Boston CLOUDY 85 64 49 E7 29.82F Worchester CLOUDY 85 59 41 W6 29.89F Westfield CLOUDY 93 59 31 W9 29.83F HX 92 Provincetown PTSUNNY 82 73 74 S13 29.86F Nantucket SUNNY 76 71 85 S10 29.89F $$ ANZ330-335-338-340-345-350-353-355-282100- COASTAL MARINE OBSERVATIONS STATION/POSITION TIME SKY/WX TEMP WIND PRES VSBY WAVE AIR SEA DIR/SP/G HT/PER (UTC) (F) (DEG/KT/KT) (MB) (MI) (FT/S) NY HARB ENTRANCE 1850 78 80 160/ 14/ 14 1011.1 1/ 8 20S FIRE ISLAND NOT AVBL GREAT SOUTH BAY 1900 78 83 200/ 12/ 14 N/A 23 SSW MONTAUK P NOT AVBL 15 E BARNEGAT LI 1900 80 N/A 1/ 6 HUDSON CANYON 1950 80 81 1012.0 1/ 6 KINGS POINT 1900 87 74 1010.7 EXECUTION ROCKS 1900 80 70/ 6/ 6 N/A CENTRAL LI SOUND NOT AVBL EASTERN LI SOUND 1900 75 71 160/ 10/ 14 N/A ROBBINS REEF 1900 78 160/ 19/ 21 1010.3 $$ >>>>>>>>>>>>>>>>>>>>>>>>>>>> KEY <<<<<<<<<<<<<<<<<<<<<<<<<<< > < > SKY/WX - Sky Condition/Present Weather < > TMP - Temperature in Fahrenheit < > DP - Dew Point in Fahrenheit < > RH - Relative Humidity in Percent < > WIND - Direction (from) and Speed in MPH < > PRES - Mean Sea Level Pressure (inches of Hg) < > WCI - Wind Chill Index < > VSB - VISIBILITY IN MILES < > HX - HEAT INDEX < > TC - TEMPERATURE IN CELSIUS < > VRB - VARIABLE WIND DIRECTION < > < >>>>>>>>>>>>>>>>>>>>>>>>>>>> KEY <<<<<<<<<<<<<<<<<<<<<<<<<<<

USA.gov is the U.S. government's official web portal to all federal, state and local government web resources and services.